Location: Bayshore Village Mobile Home Park
(26.6945°N, 81.8642°W)
Time: 23:17:42
(UTC+00:00)

Cosmos 1689 Rocket - Pass Details

Date: 17 June 2021
Orbit: 339 x 351 km, 97.5° (Epoch: 04 August)

Event Time Altitude Azimuth Distance (km) Brightness Sun altitude
Rises 01:04:11 0° 358° (N) 2,190 6.4 -8.9°
Reaches altitude 10° 01:06:15 10° 347° (NNW) 1,342 5.5 -9.3°
Maximum altitude 01:08:47 29° 284° (WNW) 703 4.3 -9.8°
Drops below altitude 10° 01:11:17 10° 222° (SW) 1,336 4.9 -10.2°
Sets 01:13:21 0° 210° (SSW) 2,177 5.9 -10.6°
